[TLELIST] Archives

 

Current TLEs

January 4th 2007 PDT

HST 1 20580U 90037B 07003.55461972 .00000377 00000-0 16453-4 0 7744 2 20580 028.4668 183.6139 0003842 150.1576 209.9234 15.00168436715213 ISS (ZARYA) 1 25544U 98067A 07004.49469251 .00019155 00000-0 11876-3 0 3790 2 25544 051.6352 229.6992 0023757 055.1110 022.3397 15.76696960464926 CXO 1 25867U 99040B 06363.41666667 +.00000352 +00000-0 +00000-0 0 00182 2 25867 060.8868 092.9355 6008030 287.1136 357.1580 00.37807561001618 ____________________________________________________________________ These 2-Line ...Continue Reading

Current TLEs

January 3rd 2007 PDT

HST 1 20580U 90037B 07001.95793973 .00000345 00000-0 13951-4 0 7739 2 20580 028.4669 194.0232 0003809 133.9242 226.1662 15.00167586714979 ISS (ZARYA) 1 25544U 98067A 07003.47961045 .00019665 00000-0 12204-3 0 3731 2 25544 051.6352 234.9372 0023695 051.4221 020.4719 15.76655271464769 CXO 1 25867U 99040B 06363.41666667 +.00000352 +00000-0 +00000-0 0 00182 2 25867 060.8868 092.9355 6008030 287.1136 357.1580 00.37807561001618 ____________________________________________________________________ These 2-Line ...Continue Reading

Current TLEs

January 2nd 2007 PDT

HST 1 20580U 90037B 07001.95793973 .00000345 00000-0 13951-4 0 7739 2 20580 028.4669 194.0232 0003809 133.9242 226.1662 15.00167586714979 ISS (ZARYA) 1 25544U 98067A 07002.53054912 .00015783 00000-0 98993-4 0 3673 2 25544 051.6364 239.8293 0023910 047.2734 034.1997 15.76609310464617 CXO 1 25867U 99040B 06363.41666667 +.00000352 +00000-0 +00000-0 0 00182 2 25867 060.8868 092.9355 6008030 287.1136 357.1580 00.37807561001618 ____________________________________________________________________ These 2-Line ...Continue Reading

Current TLEs

January 1st 2007 PDT

HST 1 20580U 90037B 06365.89348565 .00000321 00000-0 12111-4 0 7727 2 20580 028.4672 200.9640 0003753 123.5992 236.4956 15.00167083714813 ISS (ZARYA) 1 25544U 98067A 07001.26648269 .00014732 00000-0 92872-4 0 3624 2 25544 051.6359 246.3446 0023857 043.1158 059.0240 15.76566007464419 CXO 1 25867U 99040B 06363.41666667 +.00000352 +00000-0 +00000-0 0 00182 2 25867 060.8868 092.9355 6008030 287.1136 357.1580 00.37807561001618 ____________________________________________________________________ These 2-Line ...Continue Reading

Current TLEs

December 31st 2006 PDT

HST 1 20580U 90037B 06363.96416141 +.00000320 +00000-0 +12042-4 0 07855 2 20580 028.4675 213.5452 0003671 103.3371 256.7628 15.00166466714526 ISS (ZARYA) 1 25544U 98067A 06365.18559146 .00014031 00000-0 88814-4 0 3568 2 25544 051.6364 251.9169 0023743 038.8068 044.5015 15.76530641464249 CXO 1 25867U 99040B 06363.41666667 +.00000352 +00000-0 +00000-0 0 00182 2 25867 060.8868 092.9355 6008030 287.1136 357.1580 00.37807561001618 ____________________________________________________________________ These 2-Line ...Continue Reading

Current TLEs

December 30th 2006 PDT

HST 1 20580U 90037B 06364.03068981 .00000334 00000-0 13085-4 0 7717 2 20580 028.4675 213.1109 0003708 103.8574 256.2430 15.00166593714530 ISS (ZARYA) 1 25544U 98067A 06364.30151741 .00013893 00000-0 88075-4 0 3519 2 25544 051.6361 256.4735 0023863 035.2706 067.1105 15.76503871464109 CXO 1 25867U 99040B 06363.41666667 +.00000352 +00000-0 +00000-0 0 00182 2 25867 060.8868 092.9355 6008030 287.1136 357.1580 00.37807561001618 ____________________________________________________________________ These 2-Line ...Continue Reading

Current TLEs

December 29th 2006 PDT

HST 1 20580U 90037B 06362.89970543 .00000373 00000-0 16164-4 0 7708 2 20580 028.4676 220.4846 0003683 091.5333 268.5680 15.00166472714368 ISS (ZARYA) 1 25544U 98067A 06363.35148272 .00012564 00000-0 80182-4 0 3467 2 25544 051.6355 261.3729 0023769 031.6087 075.3292 15.76472828463954 CXO 1 25867U 99040B 06355.50000000 +.00000470 +00000-0 +00000-0 0 00176 2 25867 060.8318 093.1206 5994907 287.1634 359.5733 00.37802925001586 ____________________________________________________________________ These 2-Line ...Continue Reading

Current TLEs

December 28th 2006 PDT

HST 1 20580U 90037B 06360.97037811 +.00000447 +00000-0 +21914-4 0 07898 2 20580 028.4678 233.0642 0003658 070.6509 289.4477 15.00166073714070 ISS (ZARYA) 1 25544U 98067A 06362.33647111 .00015605 00000-0 98630-4 0 3400 2 25544 051.6358 266.6053 0023737 027.9262 074.6745 15.76451275463793 CXO 1 25867U 99040B 06360.79166667 +.00000445 +00000-0 +00000-0 0 00166 2 25867 060.8650 093.0048 6005095 287.1147 359.8916 00.37807665001604 ____________________________________________________________________ These 2-Line ...Continue Reading

Current TLEs

December 27th 2006 PDT

HST 1 20580U 90037B 06361.03690661 .00000446 00000-0 21869-4 0 7690 2 20580 028.4678 232.6305 0003658 071.3679 288.7306 15.00166106714088 ISS (ZARYA) 1 25544U 98067A 06361.19343537 .00019735 00000-0 12368-3 0 3342 2 25544 051.6365 272.4947 0023897 023.2831 068.0321 15.76422487463617 CXO 1 25867U 99040B 06360.79166667 +.00000445 +00000-0 +00000-0 0 00166 2 25867 060.8650 093.0048 6005095 287.1147 359.8916 00.37807665001604 ____________________________________________________________________ These 2-Line ...Continue Reading

Current TLEs

December 26th 2006 PDT

HST 1 20580U 90037B 06359.90592087 .00000468 00000-0 23625-4 0 7681 2 20580 028.4681 240.0046 0003617 059.2970 300.7971 15.00165639713915 ISS (ZARYA) 1 25544U 98067A 06360.18856970 .00021594 00000-0 13515-3 0 3295 2 25544 051.6358 277.6751 0023684 019.6589 125.1559 15.76388053463452 CXO 1 25867U 99040B 06358.12500000 +.00000471 +00000-0 +00000-0 0 00151 2 25867 060.8456 093.0652 6000415 287.1263 356.9251 00.37805549001596 ____________________________________________________________________ These 2-Line ...Continue Reading
  • This mailing list is a public mailing list - anyone may join or leave, at any time.
  • This mailing list is announce-only.

International Space Station (ISS) / Hubble Space Telescope (HST) / Chandra X-Ray Observatory Orbital Data via EMAIL

Privacy Policy:

Private list